Location: Vysna Sitnica
(49.0952°N, 21.7906°E)
Time: 02:03:47
(UTC+01:00)

ISS - Visible Passes

Search period start: 01 December 2023 00:00
Search period end: 11 December 2023 00:00
Orbit: 416 x 417 km, 51.6° (Epoch: 30 November)

Date Brightness Start Highest point End Pass type
(mag) Time Alt. Az. Time Alt. Az. Time Alt. Az.
01 Dec -3.8 16:42:23 10° WNW 16:45:45 74° NNE 16:48:35 14° E visible
01 Dec -1.7 18:19:19 10° W 18:21:30 27° WSW 18:21:30 27° WSW visible
02 Dec -2.8 17:30:44 10° WNW 17:33:58 45° SSW 17:35:25 27° SSE visible
03 Dec -3.4 16:42:12 10° WNW 16:45:32 66° SSW 16:48:51 10° ESE visible
03 Dec -1.0 18:19:51 10° WSW 18:21:47 14° SW 18:22:27 14° SSW visible
04 Dec -1.3 17:30:46 10° W 17:33:25 22° SW 17:36:05 10° SSE visible
05 Dec -1.9 16:41:56 10° W 16:44:59 32° SW 16:48:01 10° SSE visible
07 Dec -0.6 16:41:58 10° W 16:44:03 16° SW 16:46:07 10° S visible
